DW3929 Weather Reports


Display with metric or nautical units.
time (UTC)temp
F
wind
direction
speed
MPH
gust
MPH
rain 1hr
in
rain 24hr
in
rain mn
in
humidity
%
barometer
mb
20260506070842 76 360 5.0 11.0 0.00 0.00 0.00 95 1007.7
20260506070320 76 360 6.0 12.0 0.00 0.00 0.00 95 1007.6
20260506062313 76 360 7.0 15.0 0.00 0.00 0.00 95 1007.8
20260506061812 76 360 5.0 9.0 0.00 0.00 0.00 95 1007.8
20260506061349 76 360 4.0 10.0 0.00 0.00 0.00 95 1007.9
20260506060825 76 360 6.0 10.0 0.00 0.00 0.00 95 1007.9
20260506060314 76 360 3.0 9.0 0.00 0.00 0.00 95 1007.8
20260506051337 76 360 3.0 8.0 0.00 0.00 0.00 94 1007.9
20260506050813 76 360 3.0 8.0 0.00 0.00 0.00 94 1007.9
20260506050312 76 360 2.0 8.0 0.00 0.00 0.00 94 1007.9
20260506044833 77 360 3.0 9.0 0.00 0.00 0.00 93 1007.8
20260506044330 77 360 3.0 11.0 0.00 0.00 0.00 93 1007.8
20260506043829 77 360 4.0 11.0 0.00 0.00 0.00 93 1007.9
20260506043348 77 360 4.0 11.0 0.00 0.00 0.00 93 1007.9
20260506042827 77 360 4.0 11.0 0.00 0.00 0.00 93 1007.8
20260506042327 77 360 6.0 11.0 0.00 0.00 0.00 93 1007.7
20260506041828 77 360 5.0 11.0 0.00 0.00 0.00 93 1007.6
20260506041347 77 360 5.0 10.0 0.00 0.00 0.00 92 1007.7
20260506040824 77 360 4.0 12.0 0.00 0.00 0.00 92 1007.6
20260506040325 77 360 6.0 12.0 0.00 0.00 0.00 92 1007.6
20260506035823 77 360 5.0 12.0 0.00 0.00 0.00 92 1007.7
20260506035324 77 360 5.0 11.0 0.00 0.00 0.00 92 1007.6
20260506034824 77 360 5.0 11.0 0.00 0.00 0.00 91 1007.5
20260506034324 77 360 4.0 13.0 0.00 0.00 0.00 91 1007.3
20260506033813 78 360 5.0 14.0 0.00 0.00 0.00 91 1007.1
20260506033351 78 360 7.0 14.0 0.00 0.00 0.00 91 1007.1
20260506032830 78 360 4.0 12.0 0.00 0.00 0.00 91 1007.0
20260506032349 78 360 5.0 12.0 0.00 0.00 0.00 90 1007.0
20260506031829 78 360 5.0 10.0 0.00 0.00 0.00 90 1006.9
20260506031325 78 360 5.0 11.0 0.00 0.00 0.00 90 1006.8
20260506030823 78 360 5.0 14.0 0.00 0.00 0.00 90 1006.7
20260506030322 78 360 7.0 14.0 0.00 0.00 0.00 89 1006.5
20260506025819 78 360 7.0 14.0 0.00 0.00 0.00 89 1006.4
20260506025319 78 360 7.0 12.0 0.00 0.00 0.00 89 1006.4
20260506024819 79 360 6.0 11.0 0.00 0.00 0.00 89 1006.3
20260506024319 79 360 5.0 13.0 0.00 0.00 0.00 88 1006.3
20260506023818 79 360 6.0 13.0 0.00 0.00 0.00 88 1006.3
20260506023319 79 360 6.0 13.0 0.00 0.00 0.00 88 1006.2
20260506022816 79 360 5.0 13.0 0.00 0.00 0.00 87 1006.2
20260506022316 79 360 8.0 12.0 0.00 0.00 0.00 87 1006.2
20260506021812 79 360 6.0 11.0 0.00 0.00 0.00 87 1006.1
20260506021313 80 360 5.0 10.0 0.00 0.00 0.00 87 1006.2
20260506020831 80 360 5.0 9.0 0.00 0.00 0.00 86 1006.2
20260506020332 80 360 3.0 8.0 0.00 0.00 0.00 86 1006.2
20260506015830 80 360 3.0 8.0 0.00 0.00 0.00 86 1006.1
20260506015331 80 360 4.0 11.0 0.00 0.00 0.00 86 1006.1
20260506014830 80 360 3.0 12.0 0.00 0.00 0.00 85 1006.0
20260506014329 81 360 7.0 12.0 0.00 0.00 0.00 85 1006.0
20260506013848 81 360 3.0 8.0 0.00 0.00 0.00 84 1005.9
20260506013347 81 360 2.0 8.0 0.00 0.00 0.00 84 1005.8
20260506012844 81 360 3.0 10.0 0.00 0.00 0.00 83 1005.7
20260506012322 82 360 7.0 12.0 0.00 0.00 0.00 83 1005.7
20260506011821 82 360 6.0 12.0 0.00 0.00 0.00 83 1005.6
20260506011319 82 360 5.0 11.0 0.00 0.00 0.00 83 1005.7
20260506010819 82 360 6.0 11.0 0.00 0.00 0.00 83 1005.6
20260506010319 82 360 5.0 9.0 0.00 0.00 0.00 83 1005.4
20260506005820 82 360 4.0 8.0 0.00 0.00 0.00 82 1005.3
20260506005318 82 360 2.0 5.0 0.00 0.00 0.00 82 1005.3
20260506004816 83 360 2.0 5.0 0.00 0.00 0.00 82 1005.3
20260506004337 83 360 3.0 6.0 0.00 0.00 0.00 81 1005.3
20260506003816 83 360 3.0 6.0 0.00 0.00 0.00 81 1005.2
20260506003315 83 360 2.0 5.0 0.00 0.00 0.00 80 1005.1
20260506002813 83 360 2.0 5.0 0.00 0.00 0.00 80 1005.1
20260506002312 84 360 3.0 6.0 0.00 0.00 0.00 80 1005.0
20260506001852 84 360 3.0 6.0 0.00 0.00 0.00 79 1005.0
20260506001331 84 360 3.0 6.0 0.00 0.00 0.00 78 1004.9
20260506000831 85 360 3.0 6.0 0.00 0.00 0.00 78 1004.9
20260506000330 85 360 3.0 9.0 0.00 0.00 0.00 77 1004.9
20260505235828 84 360 4.0 9.0 0.00 0.00 0.00 77 1004.8
20260505235328 85 360 4.0 8.0 0.00 0.00 0.00 77 1004.7
20260505234828 85 360 4.0 8.0 0.00 0.00 0.00 77 1004.7
20260505234326 85 360 4.0 10.0 0.00 0.00 0.00 76 1004.8
20260505233824 85 360 6.0 11.0 0.00 0.00 0.00 76 1004.7
20260505233346 85 360 6.0 11.0 0.00 0.00 0.00 75 1004.6
20260505232826 86 360 4.0 12.0 0.00 0.00 0.00 75 1004.7
20260505232327 86 360 6.0 12.0 0.00 0.00 0.00 75 1004.7
20260505231824 86 360 4.0 11.0 0.00 0.00 0.00 76 1004.7
20260505231325 86 360 7.0 12.0 0.00 0.00 0.00 76 1004.7
20260505230824 86 360 7.0 12.0 0.00 0.00 0.00 75 1004.7
20260505230323 86 360 6.0 10.0 0.00 0.00 0.00 75 1004.7
20260505225839 87 360 4.0 10.0 0.00 0.00 0.00 74 1004.6
20260505225317 86 360 5.0 12.0 0.00 0.00 0.00 75 1004.7
20260505224817 86 360 5.0 13.0 0.00 0.00 0.00 74 1004.7
20260505224336 86 360 9.0 13.0 0.00 0.00 0.00 73 1004.7
20260505223813 86 360 5.0 13.0 0.00 0.00 0.00 75 1004.8
20260505223353 86 360 7.0 13.0 0.00 0.00 0.00 74 1004.8
20260505222812 86 360 6.0 11.0 0.00 0.00 0.00 74 1004.8
20260505222313 86 360 6.0 11.0 0.00 0.00 0.00 74 1004.9
20260505221814 86 360 5.0 11.0 0.00 0.00 0.00 75 1004.8
20260505221333 86 360 6.0 11.0 0.00 0.00 0.00 75 1004.9
20260505220852 86 360 5.0 15.0 0.00 0.00 0.00 74 1005.0
20260505220350 86 360 5.0 15.0 0.00 0.00 0.00 72 1005.0
20260505215814 87 360 6.0 13.0 0.00 0.00 0.00 74 1005.1
20260505215331 87 360 7.0 13.0 0.00 0.00 0.00 75 1005.1
20260505214831 86 360 8.0 16.0 0.00 0.00 0.00 75 1005.2
20260505214331 86 360 8.0 17.0 0.00 0.00 0.00 74 1005.2
20260505213829 86 360 5.0 17.0 0.00 0.00 0.00 76 1005.4
20260505213328 86 360 5.0 15.0 0.00 0.00 0.00 76 1005.3
20260505212829 86 360 8.0 15.0 0.00 0.00 0.00 74 1005.5
20260505212327 86 360 5.0 13.0 0.00 0.00 0.00 74 1005.5
20260505211825 86 360 4.0 15.0 0.00 0.00 0.00 74 1005.4
20260505211323 86 360 7.0 13.0 0.00 0.00 0.00 74 1005.5
20260505210821 85 360 8.0 15.0 0.00 0.00 0.00 75 1005.5
20260505210320 85 360 8.0 15.0 0.00 0.00 0.00 76 1005.6
20260505205839 85 360 4.0 14.0 0.00 0.00 0.00 75 1005.8
20260505205317 86 360 8.0 14.0 0.00 0.00 0.00 75 1005.9
20260505204817 86 360 7.0 12.0 0.00 0.00 0.00 74 1006.0
20260505204336 86 360 5.0 16.0 0.00 0.00 0.00 75 1006.1
20260505203814 86 360 9.0 16.0 0.00 0.00 0.00 73 1006.1
20260505203316 86 360 8.0 17.0 0.00 0.00 0.00 75 1006.1
20260505202835 86 360 8.0 17.0 0.00 0.00 0.00 75 1006.3
20260505202332 86 360 5.0 12.0 0.00 0.00 0.00 76 1006.3
20260505201831 85 360 7.0 12.0 0.00 0.00 0.00 76 1006.3
20260505201326 85 360 5.0 15.0 0.00 0.00 0.00 76 1006.4
20260505200823 85 360 7.0 14.0 0.00 0.00 0.00 75 1006.5
20260505200320 85 360 7.0 12.0 0.00 0.00 0.00 76 1006.5
20260505195814 85 360 7.0 15.0 0.00 0.00 0.00 75 1006.5
20260505195327 85 360 8.0 18.0 0.00 0.00 0.00 75 1006.6
20260505194826 85 360 10.0 18.0 0.00 0.00 0.00 75 1006.7
20260505194320 85 360 6.0 13.0 0.00 0.00 0.00 76 1006.8
20260505193821 85 360 8.0 17.0 0.00 0.00 0.00 77 1006.8
20260505193318 84 360 9.0 17.0 0.00 0.00 0.00 76 1006.9
20260505192819 85 360 11.0 17.0 0.00 0.00 0.00 75 1007.0
20260505192319 85 360 5.0 13.0 0.00 0.00 0.00 78 1007.1
20260505191817 84 360 7.0 11.0 0.00 0.00 0.00 80 1007.3
20260505191329 83 360 3.0 12.0 0.00 0.00 0.00 80 1007.4
20260505190826 83 360 7.0 12.0 0.00 0.00 0.00 79 1007.4
20260505190325 83 360 6.0 14.0 0.00 0.00 0.00 79 1007.3
20260505185844 83 360 4.0 14.0 0.00 0.00 0.00 78 1007.4
20260505185323 83 360 9.0 14.0 0.00 0.00 0.00 78 1007.5
20260505184842 83 360 6.0 15.0 0.00 0.00 0.00 79 1007.5
20260505184340 83 360 4.0 14.0 0.00 0.00 0.00 80 1007.6
20260505183819 83 360 6.0 14.0 0.00 0.00 0.00 81 1007.6
20260505183317 82 360 7.0 14.0 0.00 0.00 0.00 81 1007.7
20260505182815 82 360 5.0 14.0 0.00 0.00 0.00 83 1007.6
20260505182327 81 360 4.0 11.0 0.00 0.00 0.00 85 1007.7
20260505181827 81 360 4.0 11.0 0.00 0.00 0.00 84 1007.7
20260505181339 81 360 5.0 9.0 0.00 0.00 0.00 82 1007.9
20260505180819 81 360 3.0 9.0 0.00 0.00 0.00 82 1007.9
20260505180337 81 360 4.0 13.0 0.00 0.00 0.00 84 1007.9
20260505175815 80 360 7.0 13.0 0.00 0.00 0.00 84 1007.9
20260505175315 80 360 4.0 12.0 0.00 0.00 0.00 84 1008.0
20260505174815 79 360 3.0 8.0 0.00 0.00 0.00 86 1008.2
20260505174327 79 360 3.0 12.0 0.00 0.00 0.00 86 1008.2
20260505173828 79 360 3.0 12.0 0.00 0.00 0.00 86 1008.2
20260505173343 79 360 4.0 11.0 0.00 0.00 0.00 86 1008.2
20260505172841 79 360 7.0 10.0 0.00 0.00 0.00 86 1008.1
20260505172319 78 360 5.0 10.0 0.00 0.00 0.00 87 1008.2
20260505171818 78 360 4.0 11.0 0.00 0.00 0.00 87 1008.3
20260505171317 78 360 6.0 11.0 0.00 0.00 0.00 87 1008.4
20260505170816 78 360 5.0 10.0 0.00 0.00 0.00 87 1008.5
20260505170335 78 360 2.0 8.0 0.00 0.00 0.00 89 1008.5
20260505165813 77 360 5.0 9.0 0.00 0.00 0.00 89 1008.4
20260505165313 77 360 5.0 12.0 0.00 0.00 0.00 89 1008.4
20260505164833 77 360 3.0 12.0 0.00 0.00 0.00 89 1008.4
20260505164330 77 360 4.0 12.0 0.00 0.00 0.00 89 1008.4
20260505163828 77 360 4.0 12.0 0.00 0.00 0.00 89 1008.4
20260505163349 77 360 3.0 9.0 0.00 0.00 0.00 90 1008.4
20260505162826 76 360 3.0 8.0 0.00 0.00 0.00 90 1008.4
20260505162326 76 360 4.0 6.0 0.00 0.00 0.00 90 1008.4
20260505161845 76 360 2.0 6.0 0.00 0.00 0.00 90 1008.5
20260505161322 76 360 2.0 8.0 0.00 0.00 0.00 91 1008.4
20260505160820 76 360 4.0 9.0 0.00 0.00 0.00 91 1008.4
20260505160316 76 360 5.0 11.0 0.00 0.00 0.00 91 1008.4
20260505153328 75 360 6.0 13.0 0.00 0.00 0.00 92 1008.4
20260505152845 75 360 3.0 11.0 0.00 0.00 0.00 93 1008.4
20260505152323 74 360 5.0 16.0 0.00 0.00 0.00 93 1008.3
20260505151821 74 360 3.0 11.0 0.00 0.00 0.00 94 1008.3
20260505151320 74 360 3.0 13.0 0.00 0.00 0.00 95 1008.3
20260505150819 74 360 5.0 13.0 0.00 0.00 0.00 95 1008.2
20260505150319 74 360 6.0 12.0 0.00 0.00 0.00 95 1008.2
20260505140329 73 360 4.0 11.0 0.00 0.00 0.00 95 1008.0
20260505124815 72 360 4.0 11.0 0.00 0.00 0.00 94 1007.4
20260505124336 72 360 4.0 12.0 0.00 0.00 0.00 94 1007.4
20260505123813 72 360 7.0 12.0 0.00 0.00 0.00 94 1007.3
20260505123346 72 360 4.0 12.0 0.00 0.00 0.00 94 1007.3
20260505122825 72 360 6.0 13.0 0.00 0.00 0.00 94 1007.3
20260505122324 72 360 6.0 13.0 0.00 0.00 0.00 94 1007.2
20260505121823 72 360 5.0 12.0 0.00 0.00 0.00 94 1007.2
20260505121323 72 360 4.0 14.0 0.00 0.00 0.00 94 1007.1
20260505120822 72 360 6.0 14.0 0.00 0.00 0.00 94 1006.9
20260505120322 72 360 6.0 14.0 0.00 0.00 0.00 94 1006.9
20260505115821 72 360 5.0 11.0 0.00 0.00 0.00 94 1007.0
20260505115320 72 360 5.0 11.0 0.00 0.00 0.00 94 1007.0
20260505114820 72 360 5.0 9.0 0.00 0.00 0.00 94 1007.0
20260505114339 72 360 4.0 11.0 0.00 0.00 0.00 94 1007.0
20260505113817 72 360 4.0 11.0 0.00 0.00 0.00 94 1007.0
20260505113316 72 360 5.0 11.0 0.00 0.00 0.00 94 1006.8
20260505112835 72 360 6.0 11.0 0.00 0.00 0.00 94 1006.8
20260505112331 72 360 5.0 11.0 0.00 0.00 0.00 94 1006.8
20260505111831 72 360 5.0 11.0 0.00 0.00 0.00 94 1006.9
20260505111314 71 360 5.0 13.0 0.00 0.00 0.00 94 1006.9
20260505110830 71 360 6.0 13.0 0.00 0.00 0.00 94 1006.9
20260505110331 71 360 5.0 10.0 0.00 0.00 0.00 94 1007.0
20260505101814 71 360 6.0 11.0 0.00 0.00 0.00 94 1007.1
20260505101312 71 360 3.0 11.0 0.00 0.00 0.00 94 1007.0
20260505100812 71 360 7.0 12.0 0.00 0.00 0.00 94 1007.0
20260505100312 71 360 7.0 12.0 0.00 0.00 0.00 94 1007.1
20260505095833 71 360 5.0 12.0 0.00 0.00 0.00 94 1007.1
20260505095328 71 360 4.0 12.0 0.00 0.00 0.00 94 1007.2
20260505094827 71 360 7.0 16.0 0.00 0.00 0.00 94 1007.1
20260505094345 71 360 7.0 16.0 0.00 0.00 0.00 94 1007.2
20260505093820 71 360 5.0 13.0 0.00 0.00 0.00 94 1007.0
20260505093320 71 360 6.0 12.0 0.00 0.00 0.00 94 1007.1
20260505092818 71 360 5.0 13.0 0.00 0.00 0.00 94 1007.3
20260505092339 71 360 4.0 15.0 0.00 0.00 0.00 94 1007.4
20260505091817 71 360 6.0 15.0 0.00 0.00 0.00 94 1007.3
20260505091338 71 360 5.0 11.0 0.00 0.00 0.00 94 1007.3
20260505090818 71 360 6.0 11.0 0.00 0.00 0.00 94 1007.5
20260505090312 71 360 5.0 12.0 0.00 0.00 0.00 94 1007.5
20260505085812 71 360 6.0 14.0 0.00 0.00 0.00 94 1007.2
20260505085331 71 360 9.0 14.0 0.00 0.00 0.00 94 1007.3
20260505084828 71 360 6.0 13.0 0.00 0.00 0.00 93 1007.3
20260505084348 71 360 4.0 13.0 0.00 0.00 0.00 93 1007.5
20260505083845 71 360 5.0 13.0 0.00 0.00 0.00 93 1007.6
20260505083322 71 360 7.0 11.0 0.00 0.00 0.00 93 1007.6
20260505082819 71 360 5.0 13.0 0.00 0.00 0.00 93 1007.7
20260505082317 71 360 6.0 13.0 0.00 0.00 0.00 93 1007.7
20260505081852 71 360 4.0 20.0 0.00 0.00 0.00 93 1007.8
20260505081326 71 360 5.0 20.0 0.00 0.00 0.00 92 1007.9
20260505080825 71 360 7.0 13.0 0.00 0.00 0.00 92 1007.8
20260505080344 71 360 6.0 18.0 0.00 0.00 0.00 92 1007.9
20260505075820 71 360 10.0 18.0 0.00 0.00 0.00 93 1008.0
20260505075339 71 360 7.0 16.0 0.00 0.00 0.00 92 1008.1
20260505074818 71 360 7.0 14.0 0.00 0.00 0.00 93 1008.1
20260505074318 71 360 8.0 15.0 0.00 0.00 0.00 93 1008.2
20260505073816 71 360 8.0 15.0 0.00 0.00 0.00 93 1008.2
20260505073335 71 360 7.0 15.0 0.00 0.00 0.00 93 1008.3
20260505072854 71 360 7.0 16.0 0.00 0.00 0.00 93 1008.2
20260505072329 71 360 7.0 12.0 0.00 0.00 0.00 93 1008.3
20260505071828 71 360 6.0 13.0 0.00 0.00 0.00 92 1008.3
20260505071326 71 360 7.0 13.0 0.00 0.00 0.00 92 1008.3